Weather History for Haines Junction, YT

Change the Weather History Date:

Saturday, December 1, 2012

  Actual Average Record
Temperature  
Mean Temperature -30 °F -  
Max Temperature -22 °F - - ()
Min Temperature -37 °F - - ()
Degree Days  
Heating Degree Days 94    
Moisture  
Dew Point -38 °F    
Average Humidity 62    
Maximum Humidity 73    
Minimum Humidity 39    
Precipitation  
Precipitation 0.00 in - - ()
Sea Level Pressure  
Sea Level Pressure 29.98 in    
Wind  
Wind Speed 2 mph ()    
Max Wind Speed 4 mph    
Max Gust Speed -    
T = Trace of Precipitation, MM = Missing Value Source: Averaged Metar Reports

Daily Weather History Graph

Daily Weather History Graph

Search for Another Location

Airport:

Trip Planner

Search our weather history database for the weather conditions in past years. The results will help you decide how hot, cold, wet, or windy it might be!

Date:

Astronomy

Dec. 01, 2012 Rise Set
Actual Time 9:53 AM PST 4:05 PM PST
Civil Twilight 8:56 AM PST 5:02 PM PST
Nautical Twilight 7:59 AM PST 5:58 PM PST
Astronomical Twilight 7:08 AM PST 6:50 PM PST
Moon 7:21 PM PST (12/1) 11:56 AM PST (12/1)
Length of Visible Light 8h 05m
Length of Day
6h 12m
Waning Gibbous, 91% of the Moon is Illuminated
Dec 1
Waning Gibbous
Dec 6
Last Quarter
Dec 13
New
Dec 19
First Quarter
Dec 28
Full

Hourly Weather History & Observations

Time (PST) Temp. Windchill Dew Point Humidity Pressure Visibility Wind Dir Wind Speed Gust Speed Precip Events Conditions
12:00 AM -22.4 °F - -29.7 °F 69% 30.07 in - NNE 2.3 mph - N/A   Unknown
1:00 AM -22.2 °F - -28.3 °F 73% 30.07 in - East 2.3 mph - N/A   Unknown
2:00 AM -24.2 °F - -31.2 °F 70% 30.06 in - ENE 2.3 mph - N/A   Unknown
3:00 AM -26.7 °F - -34.2 °F 67% 30.05 in - East 2.3 mph - N/A   Unknown
4:00 AM -28 °F - -36 °F 47% 30.04 in - ENE 1.2 mph - -  
4:00 AM -27.8 °F - -36.2 °F 64% 30.04 in - ENE 1.2 mph - N/A   Unknown
5:00 AM -27.4 °F -39.2 °F -34.8 °F 68% 30.04 in - NE 3.5 mph - N/A   Unknown
6:00 AM -29.4 °F - -37.8 °F 64% 30.01 in - East 2.3 mph - N/A   Unknown
7:00 AM -30.6 °F - -38.9 °F 64% 30.02 in - ENE 2.3 mph - N/A   Unknown
8:00 AM -31.2 °F - -39.3 °F 65% 30.02 in - East 2.3 mph - N/A   Unknown
10:00 AM -32 °F - -40 °F 47% 30.00 in - ENE 1.2 mph - -  
10:00 AM -32.4 °F - -40.0 °F 67% 30.00 in - ENE 1.2 mph - N/A   Unknown
11:00 AM -31.7 °F - -39.8 °F 65% 30.00 in - NNE 2.3 mph - N/A   Unknown
12:00 PM -30.8 °F - -39.1 °F 64% 29.99 in - NE 1.2 mph - N/A   Unknown
1:00 PM -28.7 °F - -37.5 °F 63% 29.97 in - NNE 1.2 mph - N/A   Unknown
2:00 PM -25.4 °F - -33.5 °F 66% 29.96 in - Calm Calm - N/A   Unknown
3:00 PM -24.2 °F - -32.6 °F 65% 29.93 in - Calm Calm - N/A   Unknown
4:00 PM -27 °F - -35 °F 47% 29.93 in - NNE 1.2 mph - -  
4:00 PM -27.2 °F - -35.3 °F 65% 29.93 in - NNE 1.2 mph - N/A   Unknown
5:00 PM -30.5 °F - -38.9 °F 64% 29.93 in - NE 1.2 mph - N/A   Unknown
6:00 PM -32.1 °F - -40.9 °F 62% 29.93 in - NE 1.2 mph - N/A   Unknown
7:00 PM -34.1 °F - -42.7 °F 63% 29.93 in - NE 1.2 mph - N/A   Unknown
8:00 PM -34.8 °F - -44.3 °F 59% 29.93 in - ENE 1.2 mph - N/A   Unknown
9:00 PM -36.6 °F - -45.8 °F 60% 29.93 in - East 2.3 mph - N/A   Unknown
10:00 PM -37 °F - -46 °F 39% 29.92 in - NE 1.2 mph - -  
10:00 PM -37.3 °F - -46.5 °F 60% 29.92 in - NE 1.2 mph - N/A   Unknown
11:00 PM -37.5 °F - -47.0 °F 59% 29.91 in - North 1.2 mph - N/A   Unknown